M I D A S
Marine Information and Data Acquisition System
Tripno 1356 of the Zeeleeuw from 2007-09-25 06:39:14 to 2007-09-25 15:25:09
Back to CruiseResearch ActivitiesStationsMapUnderway DataData graphs

EquipmentUnitsComments
TimeDGPSUTC
LatitudeDGPSDM.mWGS84
LongitudeDGPSDM.mWGS84
SpeedMeteo Stationm/sRelative wind speed
DirectionMeteo StationdegRelative wind direction
TemperatureMeteo Stationdeg CelciusAir temperature
PressureMeteo StationPaAtmospheric pressure
HumidityMeteo Station%Relative humidity
Missing or incorrect values are displayed as -999
Metereological data collected by the RV Zeeleeuw from 2007-09-25 06:26:18 to 2007-09-25 15:38:00
Time Latitude Longitude Speed Direction Temperature Pressure Humidity
2007-09-25 06:27 51°13.618 2°56.054 3.5 14 9.7 101230 97
2007-09-25 06:28 51°13.652 2°55.956 3 26 9.7 101230 97
2007-09-25 06:29 51°13.696 2°55.844 3.1 22 9.7 101230 97
2007-09-25 06:30 51°13.712 2°55.746 3.6 36 9.8 101230 97
2007-09-25 06:31 51°13.714 2°55.702 4.7 39 9.8 101230 97
2007-09-25 06:32 51°13.736 2°55.705 1.3 264 9.8 101230 97
2007-09-25 06:33 51°13.822 2°55.646 3 249 9.9 101230 97
2007-09-25 06:34 51°13.932 2°55.561 2.2 24 9.9 101230 97
2007-09-25 06:35 51°14.048 2°55.476 1.3 26 10 101230 97
2007-09-25 06:36 51°14.165 2°55.381 6.5 260 10 101230 97
2007-09-25 06:37 51°14.257 2°55.265 3.1 256 10.1 101220 97
2007-09-25 06:38 51°14.343 2°55.113 6.3 261 10.1 101220 96
2007-09-25 06:39 51°14.451 2°54.912 6.4 22 10.2 101230 96
2007-09-25 06:40 51°14.625 2°54.762 4.3 254 10.2 101220 96
2007-09-25 06:41 51°14.81 2°54.645 5.9 251 10.3 101230 97
2007-09-25 06:42 51°14.993 2°54.533 5.9 254 10.5 101220 97
2007-09-25 06:43 51°15.169 2°54.406 10.5 254 10.7 101220 97
2007-09-25 06:44 51°15.345 2°54.269 10.5 259 10.8 101210 97
2007-09-25 06:45 51°15.524 2°54.139 6.9 257 10.9 101210 97
2007-09-25 06:46 51°15.704 2°54.008 9 256 11 101210 97
2007-09-25 06:47 51°15.885 2°53.878 10.9 258 11.2 101210 97
2007-09-25 06:48 51°16.025 2°53.93 7 35 11.3 101200 97
2007-09-25 06:49 51°16.13 2°54.092 4.3 28 11.3 101210 96
2007-09-25 06:50 51°16.232 2°54.245 3.6 26 11.4 101200 96
2007-09-25 06:51 51°16.281 2°54.292 6 24 11.5 101210 96
2007-09-25 06:52 51°16.289 2°54.279 9.4 26 11.6 101210 96
2007-09-25 06:53 51°16.295 2°54.259 9.4 23 11.6 101210 95
2007-09-25 06:54 51°16.297 2°54.239 7.8 268 11.6 101220 95
2007-09-25 06:55 51°16.294 2°54.22 9.8 29 11.7 101220 95
2007-09-25 06:56 51°16.304 2°54.187 6.9 262 11.7 101210 94
2007-09-25 06:57 51°16.386 2°54.053 10.7 254 11.7 101210 94
2007-09-25 06:58 51°16.523 2°53.826 12.2 22 11.8 101210 95
2007-09-25 06:59 51°16.661 2°53.586 9.2 249 11.9 101200 95
2007-09-25 07:00 51°16.797 2°53.348 8.8 250 12.1 101200 95
2007-09-25 07:01 51°16.929 2°53.112 11.1 245 12.2 101210 95
2007-09-25 07:02 51°17.061 2°52.882 8.5 23 12.3 101220 94
2007-09-25 07:03 51°17.197 2°52.65 11.3 246 12.4 101220 95
2007-09-25 07:04 51°17.331 2°52.417 11 24 12.5 101220 94
2007-09-25 07:05 51°17.465 2°52.181 9.5 26 12.5 101210 93
2007-09-25 07:06 51°17.601 2°51.947 14 245 12.6 101200 93
2007-09-25 07:07 51°17.736 2°51.715 10 24 12.6 101210 93
2007-09-25 07:08 51°17.874 2°51.485 12.2 249 12.7 101200 93
2007-09-25 07:09 51°18.014 2°51.258 12.3 245 12.7 101200 92
2007-09-25 07:10 51°18.159 2°51.039 11.9 248 12.7 101220 92
2007-09-25 07:11 51°18.302 2°50.824 10.5 20 12.7 101210 92
2007-09-25 07:12 51°18.43 2°50.759 4.4 20 12.7 101210 92
2007-09-25 07:13 51°18.48 2°50.915 7.9 32 12.8 101180 92
2007-09-25 07:14 51°18.505 2°51.003 9.2 22 12.8 101200 92
2007-09-25 07:15 51°18.516 2°51.035 8.7 40 12.7 101200 92
2007-09-25 07:16 51°18.514 2°51.057 9.4 33 12.7 101190 92
2007-09-25 07:17 51°18.504 2°51.066 9.4 28 12.7 101190 92
2007-09-25 07:18 51°18.492 2°51.067 9.7 20 12.6 101190 92
2007-09-25 07:19 51°18.477 2°51.067 8.4 12 12.7 101190 93
2007-09-25 07:20 51°18.471 2°51.132 7.5 41 12.7 101190 93
2007-09-25 07:21 51°18.529 2°51.328 5.9 22 12.7 101200 93
2007-09-25 07:22 51°18.594 2°51.602 5.9 19 12.6 101200 93
2007-09-25 07:23 51°18.662 2°51.874 5.9 19 12.6 101210 93
2007-09-25 07:24 51°18.734 2°52.151 4.7 23 12.6 101200 92
2007-09-25 07:25 51°18.803 2°52.428 5.7 28 12.7 101200 93
2007-09-25 07:26 51°18.876 2°52.7 5.3 28 12.6 101210 91
2007-09-25 07:27 51°18.948 2°52.975 5.9 26 12.6 101200 91
2007-09-25 07:28 51°19.02 2°53.247 4.4 24 12.6 101210 91
2007-09-25 07:29 51°19.091 2°53.524 7 32 12.7 101200 91
2007-09-25 07:30 51°19.156 2°53.799 6.9 25 12.6 101210 90
2007-09-25 07:31 51°19.221 2°54.076 6 29 12.7 101210 90
2007-09-25 07:32 51°19.291 2°54.347 4.8 32 12.7 101200 89
2007-09-25 07:33 51°19.359 2°54.62 4.8 26 12.8 101210 90
2007-09-25 07:34 51°19.429 2°54.895 5.3 36 12.9 101210 89
2007-09-25 07:35 51°19.494 2°55.17 6.4 26 12.9 101210 90
2007-09-25 07:36 51°19.56 2°55.444 5.1 23 13 101210 90
2007-09-25 07:37 51°19.627 2°55.72 6.5 28 13.2 101200 91
2007-09-25 07:38 51°19.698 2°55.991 6.4 25 13.2 101200 89
2007-09-25 07:39 51°19.763 2°56.27 7 25 13.1 101190 89
2007-09-25 07:40 51°19.825 2°56.549 8.3 23 13 101210 89
2007-09-25 07:41 51°19.893 2°56.821 7.1 29 12.9 101190 89
2007-09-25 07:42 51°19.961 2°57.098 6.6 24 12.8 101200 90
2007-09-25 07:43 51°20.027 2°57.375 6.3 28 12.7 101190 89
2007-09-25 07:44 51°20.098 2°57.65 7.8 28 12.6 101200 89
2007-09-25 07:45 51°20.162 2°57.932 9.1 24 12.7 101190 90
2007-09-25 07:46 51°20.229 2°58.207 7.4 24 12.6 101200 89
2007-09-25 07:47 51°20.295 2°58.482 8.8 27 12.6 101200 89
2007-09-25 07:48 51°20.363 2°58.76 6.4 25 12.5 101200 89
2007-09-25 07:49 51°20.428 2°59.038 7.9 33 12.5 101200 89
2007-09-25 07:50 51°20.495 2°59.314 5.1 21 12.5 101200 89
2007-09-25 07:51 51°20.565 2°59.588 6.3 32 12.6 101210 90
2007-09-25 07:52 51°20.629 2°59.862 6.3 30 12.6 101200 89
2007-09-25 07:53 51°20.695 3°0.138 6 26 12.6 101210 89
2007-09-25 07:54 51°20.763 3°0.414 6.2 31 12.6 101200 89
2007-09-25 07:55 51°20.829 3°0.693 6.7 22 12.5 101200 89
2007-09-25 07:56 51°20.89 3°0.975 7 28 12.6 101210 90
2007-09-25 07:57 51°20.957 3°1.254 6.3 26 12.6 101210 90
2007-09-25 07:58 51°21.023 3°1.532 8.1 27 12.5 101210 89
2007-09-25 07:59 51°21.087 3°1.813 6.3 31 12.5 101210 89
2007-09-25 08:00 51°21.152 3°2.097 6 19 12.6 101210 90
2007-09-25 08:01 51°21.211 3°2.383 6.4 32 12.7 101200 90
2007-09-25 08:02 51°21.276 3°2.667 4.6 26 12.6 101210 90
2007-09-25 08:03 51°21.342 3°2.95 5.8 15 12.6 101200 89
2007-09-25 08:04 51°21.404 3°3.235 6.4 30 12.7 101200 90
2007-09-25 08:05 51°21.464 3°3.519 6.8 24 12.7 101220 89
2007-09-25 08:06 51°21.523 3°3.811 6.4 34 12.7 101210 89
2007-09-25 08:07 51°21.583 3°4.104 6.8 28 12.8 101200 90
2007-09-25 08:08 51°21.64 3°4.393 8.2 27 12.8 101220 89
2007-09-25 08:09 51°21.684 3°4.695 6.9 25 12.8 101220 89
2007-09-25 08:10 51°21.725 3°4.992 8.1 26 12.8 101200 89
2007-09-25 08:11 51°21.767 3°5.292 7.4 27 12.7 101210 87
2007-09-25 08:12 51°21.811 3°5.589 7.4 26 12.8 101210 89
2007-09-25 08:13 51°21.853 3°5.888 7.1 23 12.8 101220 89
2007-09-25 08:14 51°21.896 3°6.186 6.9 28 12.8 101210 89
2007-09-25 08:15 51°21.939 3°6.482 7.8 25 12.7 101210 88
2007-09-25 08:16 51°21.985 3°6.782 8.9 24 12.8 101220 89
2007-09-25 08:17 51°22.01 3°7.091 8.1 21 12.8 101210 88
2007-09-25 08:18 51°22.029 3°7.399 8 24 12.8 101210 89
2007-09-25 08:19 51°22.049 3°7.711 9 19 12.9 101220 89
2007-09-25 08:20 51°22.07 3°8.025 7.3 12 12.9 101220 89
2007-09-25 08:21 51°22.092 3°8.336 7.6 14 12.9 101220 90
2007-09-25 08:22 51°22.115 3°8.653 8 12 12.8 101210 89
2007-09-25 08:23 51°22.14 3°8.967 9.2 16 12.7 101210 89
2007-09-25 08:24 51°22.161 3°9.282 9.8 10 12.7 101200 89
2007-09-25 08:25 51°22.188 3°9.6 8.1 10 12.6 101210 89
2007-09-25 08:26 51°22.213 3°9.921 8.6 13 12.6 101220 89
2007-09-25 08:27 51°22.238 3°10.244 8.8 14 12.6 101210 89
2007-09-25 08:28 51°22.262 3°10.565 10 13 12.5 101210 89
2007-09-25 08:29 51°22.294 3°10.891 6.4 12 12.5 101210 89
2007-09-25 08:30 51°22.322 3°11.219 6.9 12 12.6 101210 89
2007-09-25 08:31 51°22.366 3°11.539 6.1 20 12.6 101220 89
2007-09-25 08:32 51°22.426 3°11.853 7.1 24 12.7 101220 89
2007-09-25 08:33 51°22.467 3°12.172 8.2 13 12.7 101220 88
2007-09-25 08:34 51°22.478 3°12.495 6.7 12 12.8 101220 89
2007-09-25 08:35 51°22.488 3°12.762 6 22 12.7 101220 87
2007-09-25 08:36 51°22.5 3°12.983 6.2 24 12.8 101220 87
2007-09-25 08:37 51°22.522 3°13.151 5.3 22 12.8 101230 86
2007-09-25 08:38 51°22.567 3°13.212 6.4 25 12.8 101240 86
2007-09-25 08:39 51°22.607 3°13.233 8.1 26 12.8 101240 85
2007-09-25 08:40 51°22.626 3°13.244 13 26 12.9 101250 85
2007-09-25 08:41 51°22.637 3°13.253 7.2 267 12.8 101270 83
2007-09-25 08:42 51°22.645 3°13.264 7.5 266 13 101260 85
2007-09-25 08:43 51°22.652 3°13.275 6.4 265 13.2 101260 86
2007-09-25 08:44 51°22.718 3°13.251 6.6 262 13.2 101230 84
2007-09-25 08:45 51°22.886 3°13.168 11.2 257 13.2 101210 84
2007-09-25 08:46 51°23.079 3°13.068 7.3 261 13.2 101200 84
2007-09-25 08:47 51°23.274 3°12.971 8.3 248 13.2 101200 85
2007-09-25 08:48 51°23.468 3°12.875 8.3 258 13.2 101210 85
2007-09-25 08:49 51°23.664 3°12.785 8.6 260 13.2 101200 85
2007-09-25 08:50 51°23.857 3°12.695 6.1 262 13.1 101200 85
2007-09-25 08:51 51°24.05 3°12.611 4 262 13.2 101200 87
2007-09-25 08:52 51°24.248 3°12.528 8.2 263 13.1 101200 87
2007-09-25 08:53 51°24.447 3°12.453 8.5 261 13.1 101210 88
2007-09-25 08:54 51°24.638 3°12.362 9.4 252 13.1 101200 88
2007-09-25 08:55 51°24.799 3°12.196 13.7 251 13.1 101190 89
2007-09-25 08:56 51°24.955 3°12.02 11 251 13.1 101190 89
2007-09-25 08:57 51°25.102 3°11.83 12.8 252 13.2 101170 90
2007-09-25 08:58 51°25.208 3°11.589 14.1 19 13.2 101160 90
2007-09-25 08:59 51°25.306 3°11.34 14.5 25 13.3 101160 90
2007-09-25 09:00 51°25.404 3°11.09 14.7 24 13.2 101150 90
2007-09-25 09:01 51°25.499 3°10.854 15.2 27 13.2 101160 90
2007-09-25 09:02 51°25.594 3°10.609 16.1 23 13.3 101150 90
2007-09-25 09:03 51°25.687 3°10.364 13 24 13.4 101160 90
2007-09-25 09:04 51°25.784 3°10.122 14.7 246 13.5 101150 91
2007-09-25 09:05 51°25.876 3°9.872 12.2 25 13.5 101160 90
2007-09-25 09:06 51°25.972 3°9.627 13.2 23 13.6 101150 90
2007-09-25 09:07 51°26.067 3°9.373 13.8 23 13.6 101140 89
2007-09-25 09:08 51°26.154 3°9.144 12.4 24 13.6 101160 89
2007-09-25 09:09 51°26.239 3°8.926 18.4 245 13.7 101150 88
2007-09-25 09:10 51°26.312 3°8.735 14.6 22 13.7 101170 87
2007-09-25 09:11 51°26.375 3°8.567 13.3 23 13.8 101170 87
2007-09-25 09:12 51°26.414 3°8.456 9.6 246 13.9 101220 87
2007-09-25 09:13 51°26.435 3°8.382 14.5 250 13.9 101180 87
2007-09-25 09:14 51°26.448 3°8.343 10.8 250 13.9 101230 86
2007-09-25 09:15 51°26.448 3°8.336 14.3 249 13.9 101190 86
2007-09-25 09:16 51°26.447 3°8.345 14.5 254 13.9 101190 86
2007-09-25 09:17 51°26.444 3°8.368 14.4 258 13.8 101190 85
2007-09-25 09:18 51°26.441 3°8.393 7.6 262 13.6 101190 85
2007-09-25 09:19 51°26.481 3°8.298 15.6 20 13.7 101170 86
2007-09-25 09:20 51°26.559 3°8.055 12.2 26 13.6 101150 85
2007-09-25 09:21 51°26.637 3°7.829 13 22 13.7 101160 86
2007-09-25 09:22 51°26.669 3°7.733 12.5 248 13.7 101180 86
2007-09-25 09:23 51°26.687 3°7.685 13.5 255 13.7 101190 86
2007-09-25 09:24 51°26.699 3°7.656 12.9 251 13.8 101190 86
2007-09-25 09:25 51°26.71 3°7.632 10.6 254 13.9 101190 88
2007-09-25 09:26 51°26.723 3°7.61 14.5 253 13.9 101190 87
2007-09-25 09:27 51°26.734 3°7.593 14.6 255 13.8 101190 86
2007-09-25 09:28 51°26.746 3°7.577 12.5 255 13.8 101190 88
2007-09-25 09:29 51°26.758 3°7.56 17.7 256 13.8 101180 88
2007-09-25 09:30 51°26.771 3°7.544 12.1 257 13.7 101190 88
2007-09-25 09:31 51°26.783 3°7.532 16.7 255 13.8 101180 89
2007-09-25 09:32 51°26.796 3°7.52 15.8 254 13.6 101190 87
2007-09-25 09:33 51°26.81 3°7.509 16.6 256 13.6 101190 87
2007-09-25 09:34 51°26.822 3°7.499 14.8 254 13.6 101180 87
2007-09-25 09:35 51°26.854 3°7.442 11.6 21 13.7 101180 88
2007-09-25 09:36 51°26.94 3°7.232 17.6 25 13.7 101150 87
2007-09-25 09:37 51°27.032 3°6.991 15.6 20 13.8 101140 88
2007-09-25 09:38 51°27.117 3°6.727 12.9 26 13.7 101140 86
2007-09-25 09:39 51°27.204 3°6.471 15.2 24 13.8 101130 87
2007-09-25 09:40 51°27.288 3°6.211 15.6 24 13.7 101140 86
2007-09-25 09:41 51°27.374 3°5.945 14.6 25 13.8 101130 86
2007-09-25 09:42 51°27.461 3°5.68 17.8 27 13.8 101120 86
2007-09-25 09:43 51°27.547 3°5.412 18.4 22 13.8 101130 86
2007-09-25 09:44 51°27.638 3°5.144 14.3 23 13.7 101140 86
2007-09-25 09:45 51°27.726 3°4.883 15.4 25 13.8 101140 86
2007-09-25 09:46 51°27.833 3°4.643 15.5 23 13.8 101140 85
2007-09-25 09:47 51°27.955 3°4.427 12.5 22 13.8 101160 85
2007-09-25 09:48 51°28.03 3°4.198 13.1 24 13.7 101160 82
2007-09-25 09:49 51°28.106 3°3.977 13.2 24 13.8 101150 82
2007-09-25 09:50 51°28.175 3°3.803 14.8 26 13.8 101150 81
2007-09-25 09:51 51°28.225 3°3.67 11.6 28 13.9 101170 81
2007-09-25 09:52 51°28.263 3°3.576 11.7 22 13.9 101210 82
2007-09-25 09:53 51°28.287 3°3.525 12.6 244 14 101180 82
2007-09-25 09:54 51°28.307 3°3.505 10.6 26 14 101190 82
2007-09-25 09:55 51°28.324 3°3.512 11.9 251 13.9 101180 80
2007-09-25 09:56 51°28.337 3°3.539 13.7 256 13.8 101180 79
2007-09-25 09:57 51°28.349 3°3.572 11.4 260 13.9 101180 80
2007-09-25 09:58 51°28.379 3°3.56 14.1 23 14 101180 82
2007-09-25 09:59 51°28.38 3°3.489 11.7 326 13.9 101150 80
2007-09-25 10:00 51°28.343 3°3.435 14.2 325 14 101190 82
2007-09-25 10:01 51°28.303 3°3.359 12.6 323 14 101170 82
2007-09-25 10:02 51°28.273 3°3.281 12.8 323 14.1 101190 82
2007-09-25 10:03 51°28.243 3°3.204 14 325 14 101160 80
2007-09-25 10:04 51°28.213 3°3.127 15.1 320 14 101170 81
2007-09-25 10:05 51°28.187 3°3.06 15.6 326 14 101170 81
2007-09-25 10:06 51°28.159 3°2.988 12.8 321 14.1 101180 81
2007-09-25 10:07 51°28.131 3°2.911 12.5 320 14.1 101200 80
2007-09-25 10:08 51°28.104 3°2.839 13.2 324 14.1 101180 80
2007-09-25 10:09 51°28.079 3°2.758 12.9 317 14.1 101190 80
2007-09-25 10:10 51°28.048 3°2.67 13.9 319 14.2 101190 80
2007-09-25 10:11 51°28.016 3°2.591 11.3 318 14.3 101190 82
2007-09-25 10:12 51°27.994 3°2.519 12.7 319 14.2 101180 80
2007-09-25 10:13 51°27.968 3°2.442 13.6 316 14.2 101190 81
2007-09-25 10:14 51°27.942 3°2.355 11.9 317 14.2 101180 82
2007-09-25 10:15 51°27.914 3°2.262 9.6 26 14.1 101180 79
2007-09-25 10:16 51°27.886 3°2.174 11 316 14.2 101190 80
2007-09-25 10:17 51°27.866 3°2.102 8.9 22 14.2 101190 80
2007-09-25 10:18 51°27.847 3°2.025 10.3 320 14.3 101190 82
2007-09-25 10:19 51°27.825 3°1.935 10.5 321 14.2 101200 78
2007-09-25 10:20 51°27.801 3°1.838 10.4 331 14.3 101200 78
2007-09-25 10:21 51°27.778 3°1.739 12.2 329 14.2 101190 74
2007-09-25 10:22 51°27.744 3°1.555 14.7 326 14.4 101180 73
2007-09-25 10:23 51°27.708 3°1.276 14.1 323 14.4 101170 71
2007-09-25 10:24 51°27.675 3°1 14.4 331 14.5 101170 74
2007-09-25 10:25 51°27.642 3°0.709 14.6 330 14.4 101170 73
2007-09-25 10:26 51°27.611 3°0.422 16.7 330 14.4 101170 73
2007-09-25 10:27 51°27.575 3°0.135 14.9 328 14.4 101190 73
2007-09-25 10:28 51°27.541 2°59.847 15.7 325 14.5 101170 74
2007-09-25 10:29 51°27.507 2°59.563 15.7 325 14.5 101170 73
2007-09-25 10:30 51°27.471 2°59.277 17 325 14.5 101180 72
2007-09-25 10:31 51°27.435 2°58.994 14.4 329 14.6 101170 76
2007-09-25 10:32 51°27.4 2°58.712 15.1 328 14.5 101170 74
2007-09-25 10:33 51°27.366 2°58.432 14.4 328 14.5 101180 74
2007-09-25 10:34 51°27.332 2°58.146 14.4 331 14.4 101170 73
2007-09-25 10:35 51°27.297 2°57.858 15 332 14.4 101180 74
2007-09-25 10:36 51°27.262 2°57.57 15.9 332 14.4 101180 74
2007-09-25 10:37 51°27.228 2°57.284 16.6 330 14.4 101170 74
2007-09-25 10:38 51°27.194 2°56.997 13.6 327 14.3 101180 73
2007-09-25 10:39 51°27.158 2°56.718 14.7 329 14.4 101180 73
2007-09-25 10:40 51°27.123 2°56.439 13.1 331 14.3 101180 72
2007-09-25 10:41 51°27.088 2°56.156 15.6 331 14.5 101170 73
2007-09-25 10:42 51°27.053 2°55.869 15.1 331 14.4 101180 74
2007-09-25 10:43 51°27.018 2°55.585 14.1 330 14.3 101170 73
2007-09-25 10:44 51°26.982 2°55.299 12.8 331 14.4 101170 73
2007-09-25 10:45 51°26.946 2°55.015 14.6 328 14.4 101180 74
2007-09-25 10:46 51°26.911 2°54.733 15.5 330 14.4 101180 73
2007-09-25 10:47 51°26.877 2°54.452 12.7 327 14.4 101180 74
2007-09-25 10:48 51°26.845 2°54.174 13.9 328 14.4 101180 73
2007-09-25 10:49 51°26.803 2°53.894 13.9 331 14.4 101190 74
2007-09-25 10:50 51°26.763 2°53.62 15.2 333 14.4 101180 72
2007-09-25 10:51 51°26.721 2°53.332 14.8 329 14.3 101180 72
2007-09-25 10:52 51°26.677 2°53.056 12.3 330 14.3 101180 74
2007-09-25 10:53 51°26.632 2°52.779 14.2 329 14.3 101190 73
2007-09-25 10:54 51°26.585 2°52.505 16.8 331 14.4 101170 74
2007-09-25 10:55 51°26.539 2°52.233 14.3 331 14.3 101190 73
2007-09-25 10:56 51°26.494 2°51.962 11.1 329 14.3 101180 73
2007-09-25 10:57 51°26.448 2°51.69 14.2 331 14.2 101170 73
2007-09-25 10:58 51°26.408 2°51.417 15.7 333 14.3 101180 74
2007-09-25 10:59 51°26.368 2°51.14 12.8 328 14.3 101160 74
2007-09-25 11:00 51°26.329 2°50.868 13.5 329 14.3 101190 73
2007-09-25 11:01 51°26.287 2°50.595 15.5 331 14.3 101190 72
2007-09-25 11:02 51°26.246 2°50.319 15.1 325 14.3 101180 73
2007-09-25 11:03 51°26.204 2°50.047 13.3 328 14.3 101190 73
2007-09-25 11:04 51°26.163 2°49.775 14.8 331 14.4 101180 73
2007-09-25 11:05 51°26.121 2°49.504 15.6 330 14.3 101180 72
2007-09-25 11:06 51°26.084 2°49.23 13.3 327 14.3 101190 72
2007-09-25 11:07 51°26.056 2°48.983 12.3 326 14.3 101190 72
2007-09-25 11:08 51°26.037 2°48.803 9.2 325 14.3 101190 71
2007-09-25 11:09 51°26.028 2°48.674 9.7 329 14.4 101210 72
2007-09-25 11:10 51°26.019 2°48.586 9.6 331 14.4 101210 72
2007-09-25 11:11 51°26.016 2°48.56 8.9 332 14.5 101200 72
2007-09-25 11:12 51°26.014 2°48.561 6.5 337 14.4 101210 70
2007-09-25 11:13 51°26.021 2°48.587 9.3 342 14.4 101220 71
2007-09-25 11:14 51°26.032 2°48.633 8.2 355 14.3 101210 69
2007-09-25 11:15 51°26.049 2°48.684 5.8 5 14.2 101200 71
2007-09-25 11:16 51°26.07 2°48.735 7 18 14.1 101210 72
2007-09-25 11:17 51°26.09 2°48.784 7.5 28 14.2 101210 73
2007-09-25 11:18 51°26.111 2°48.834 6.4 32 14.2 101210 73
2007-09-25 11:19 51°26.111 2°48.903 6.7 16 14.1 101210 72
2007-09-25 11:20 51°26.071 2°48.927 7.2 337 14.1 101200 73
2007-09-25 11:21 51°26.04 2°48.868 9.1 337 14.2 101200 74
2007-09-25 11:22 51°26.002 2°48.797 11.4 333 14.2 101200 73
2007-09-25 11:23 51°25.969 2°48.703 9.9 330 14.3 101200 72
2007-09-25 11:24 51°25.935 2°48.603 10.8 328 14.4 101200 73
2007-09-25 11:25 51°25.902 2°48.506 11.1 331 14.4 101210 72
2007-09-25 11:26 51°25.867 2°48.411 10 333 14.5 101200 73
2007-09-25 11:27 51°25.836 2°48.305 11 333 14.4 101210 71
2007-09-25 11:28 51°25.8 2°48.201 9.1 335 14.5 101190 72
2007-09-25 11:29 51°25.763 2°48.096 9.5 333 14.5 101200 72
2007-09-25 11:30 51°25.736 2°47.997 10.6 337 14.4 101200 71
2007-09-25 11:31 51°25.708 2°47.896 11.3 335 14.4 101190 70
2007-09-25 11:32 51°25.677 2°47.801 9 332 14.5 101210 70
2007-09-25 11:33 51°25.642 2°47.702 10.9 331 14.5 101200 70
2007-09-25 11:34 51°25.581 2°47.488 13.3 330 14.5 101170 70
2007-09-25 11:35 51°25.515 2°47.23 12.7 331 14.5 101190 71
2007-09-25 11:36 51°25.447 2°46.969 13.9 330 14.6 101170 72
2007-09-25 11:37 51°25.376 2°46.707 13.1 330 14.5 101180 71
2007-09-25 11:38 51°25.308 2°46.443 14.8 330 14.4 101150 71
2007-09-25 11:39 51°25.24 2°46.174 13.7 330 14.4 101190 72
2007-09-25 11:40 51°25.173 2°45.914 11.7 327 14.4 101180 71
2007-09-25 11:41 51°25.106 2°45.652 12.2 329 14.4 101170 72
2007-09-25 11:42 51°25.038 2°45.394 12.9 330 14.4 101180 71
2007-09-25 11:43 51°24.971 2°45.134 12.4 329 14.4 101170 71
2007-09-25 11:44 51°24.903 2°44.869 13.1 331 14.3 101170 70
2007-09-25 11:45 51°24.838 2°44.611 13.6 327 14.4 101180 70
2007-09-25 11:46 51°24.772 2°44.346 12.8 328 14.5 101170 72
2007-09-25 11:47 51°24.705 2°44.091 14 331 14.5 101190 71
2007-09-25 11:48 51°24.637 2°43.832 13.9 331 14.4 101170 70
2007-09-25 11:49 51°24.571 2°43.57 13.1 330 14.4 101170 69
2007-09-25 11:50 51°24.504 2°43.307 12.5 328 14.4 101190 69
2007-09-25 11:51 51°24.438 2°43.046 12.8 328 14.4 101180 70
2007-09-25 11:52 51°24.374 2°42.786 12.8 329 14.4 101180 70
2007-09-25 11:53 51°24.307 2°42.522 13.6 328 14.4 101190 70
2007-09-25 11:54 51°24.241 2°42.266 12.6 328 14.4 101180 69
2007-09-25 11:55 51°24.155 2°42.021 13.2 336 14.5 101200 71
2007-09-25 11:56 51°24.059 2°41.795 11.5 334 14.5 101180 70
2007-09-25 11:57 51°23.958 2°41.558 11.5 332 14.5 101190 72
2007-09-25 11:58 51°23.86 2°41.324 12.7 330 14.5 101180 71
2007-09-25 11:59 51°23.762 2°41.082 11.7 333 14.5 101190 71
2007-09-25 12:00 51°23.665 2°40.847 14 334 14.6 101190 71
2007-09-25 12:01 51°23.602 2°40.591 13.4 330 14.5 101190 70
2007-09-25 12:02 51°23.545 2°40.323 12.1 331 14.5 101170 71
2007-09-25 12:03 51°23.486 2°40.051 13.3 327 14.5 101190 72
2007-09-25 12:04 51°23.428 2°39.785 11.9 328 14.5 101190 70
2007-09-25 12:05 51°23.37 2°39.515 14.1 330 14.5 101190 70
2007-09-25 12:06 51°23.312 2°39.247 12.5 331 14.6 101190 71
2007-09-25 12:07 51°23.253 2°38.971 12.9 333 14.5 101190 70
2007-09-25 12:08 51°23.199 2°38.715 13.1 330 14.5 101210 69
2007-09-25 12:09 51°23.145 2°38.459 13.4 332 14.5 101180 69
2007-09-25 12:10 51°23.094 2°38.201 10.9 332 14.5 101200 70
2007-09-25 12:11 51°23.039 2°37.937 14.6 331 14.5 101210 71
2007-09-25 12:12 51°22.988 2°37.679 13 333 14.6 101190 71
2007-09-25 12:13 51°22.932 2°37.409 13.1 333 14.4 101210 69
2007-09-25 12:14 51°22.876 2°37.147 14 333 14.4 101200 71
2007-09-25 12:15 51°22.819 2°36.882 12.5 331 14.5 101210 71
2007-09-25 12:16 51°22.765 2°36.624 13.6 331 14.5 101210 70
2007-09-25 12:17 51°22.709 2°36.356 12.1 332 14.5 101200 70
2007-09-25 12:18 51°22.655 2°36.088 12.6 331 14.5 101210 70
2007-09-25 12:19 51°22.601 2°35.827 12.9 331 14.5 101180 69
2007-09-25 12:20 51°22.546 2°35.559 11.3 333 14.6 101200 70
2007-09-25 12:21 51°22.431 2°35.369 10.5 347 14.5 101190 69
2007-09-25 12:22 51°22.251 2°35.356 11.1 347 14.4 101210 70
2007-09-25 12:23 51°22.066 2°35.355 11.7 348 14.4 101190 70
2007-09-25 12:24 51°21.887 2°35.347 10.2 350 14.3 101200 70
2007-09-25 12:25 51°21.706 2°35.331 11 351 14.3 101200 71
2007-09-25 12:26 51°21.531 2°35.314 11 348 14.3 101200 71
2007-09-25 12:27 51°21.356 2°35.272 13.4 344 14.3 101190 70
2007-09-25 12:28 51°21.252 2°35.078 11.7 335 14.3 101210 68
2007-09-25 12:29 51°21.198 2°34.81 12.4 336 14.4 101200 68
2007-09-25 12:30 51°21.131 2°34.561 12.2 338 14.5 101210 68
2007-09-25 12:31 51°21.062 2°34.3 11.3 336 14.5 101210 70
2007-09-25 12:32 51°21.001 2°34.041 12.8 332 14.5 101200 69
2007-09-25 12:33 51°20.948 2°33.769 12.4 335 14.5 101200 69
2007-09-25 12:34 51°20.891 2°33.503 12.2 334 14.5 101200 69
2007-09-25 12:35 51°20.834 2°33.237 11.6 334 14.6 101220 71
2007-09-25 12:36 51°20.773 2°32.97 11.9 329 14.5 101200 69
2007-09-25 12:37 51°20.71 2°32.708 12.5 334 14.5 101220 70
2007-09-25 12:38 51°20.647 2°32.435 11.6 331 14.5 101220 69
2007-09-25 12:39 51°20.583 2°32.163 11.4 330 14.5 101220 68
2007-09-25 12:40 51°20.517 2°31.904 11.8 333 14.6 101210 70
2007-09-25 12:41 51°20.447 2°31.634 12.2 336 14.6 101200 70
2007-09-25 12:42 51°20.376 2°31.375 12.6 333 14.6 101200 71
2007-09-25 12:43 51°20.304 2°31.107 11.9 337 14.5 101230 68
2007-09-25 12:44 51°20.226 2°30.856 13.7 335 14.6 101210 70
2007-09-25 12:45 51°20.155 2°30.607 9.9 336 14.6 101210 68
2007-09-25 12:46 51°20.099 2°30.399 11.3 335 14.5 101210 68
2007-09-25 12:47 51°20.046 2°30.206 8.2 334 14.5 101210 68
2007-09-25 12:48 51°20.008 2°30.056 8.6 338 14.6 101220 69
2007-09-25 12:49 51°19.996 2°30.008 6.1 339 14.6 101230 67
2007-09-25 12:50 51°20.004 2°30.01 6.5 335 14.6 101220 66
2007-09-25 12:51 51°20.016 2°30.033 5.6 334 14.7 101240 65
2007-09-25 12:52 51°20.03 2°30.068 5.4 334 14.8 101240 65
2007-09-25 12:53 51°20.045 2°30.11 4.3 331 14.9 101240 66
2007-09-25 12:54 51°20.061 2°30.158 4.1 326 14.9 101230 66
2007-09-25 12:55 51°20.076 2°30.2 5.4 335 15 101240 67
2007-09-25 12:56 51°20.057 2°30.218 6 8 14.9 101240 66
2007-09-25 12:57 51°19.997 2°30.335 6 4 14.8 101240 68
2007-09-25 12:58 51°19.854 2°30.53 8.3 360 14.6 101230 67
2007-09-25 12:59 51°19.705 2°30.771 5.8 358 14.5 101230 66
2007-09-25 13:00 51°19.567 2°31.016 5.4 358 14.5 101240 66
2007-09-25 13:01 51°19.435 2°31.281 4.4 6 14.5 101240 66
2007-09-25 13:02 51°19.309 2°31.537 5.6 1 14.5 101240 68
2007-09-25 13:03 51°19.177 2°31.8 6.8 358 14.5 101230 69
2007-09-25 13:04 51°19.047 2°32.062 5.7 356 14.5 101240 69
2007-09-25 13:05 51°18.915 2°32.316 6.2 355 14.4 101230 69
2007-09-25 13:06 51°18.775 2°32.559 5.2 357 14.4 101230 70
2007-09-25 13:07 51°18.639 2°32.803 7.3 356 14.5 101230 70
2007-09-25 13:08 51°18.501 2°33.041 6 357 14.5 101230 69
2007-09-25 13:09 51°18.364 2°33.28 6.4 7 14.5 101230 69
2007-09-25 13:10 51°18.225 2°33.518 5.5 3 14.5 101230 68
2007-09-25 13:11 51°18.084 2°33.76 7 -999 14.5 101230 68
2007-09-25 13:12 51°17.945 2°34.003 6 359 14.5 101230 68
2007-09-25 13:13 51°17.794 2°34.224 5.9 1 14.6 101240 69
2007-09-25 13:14 51°17.645 2°34.44 6.5 7 14.6 101230 69
2007-09-25 13:15 51°17.49 2°34.667 6.8 360 14.6 101230 68
2007-09-25 13:16 51°17.337 2°34.882 5 2 14.6 101240 69
2007-09-25 13:17 51°17.179 2°35.104 6 2 14.6 101230 70
2007-09-25 13:18 51°17.025 2°35.314 7.6 2 14.6 101230 70
2007-09-25 13:19 51°16.865 2°35.533 7 358 14.6 101230 71
2007-09-25 13:20 51°16.709 2°35.736 6.5 5 14.6 101230 72
2007-09-25 13:21 51°16.551 2°35.954 4.3 1 14.6 101240 71
2007-09-25 13:22 51°16.395 2°36.17 7 3 14.6 101230 72
2007-09-25 13:23 51°16.282 2°36.412 1.8 4 14.7 101230 74
2007-09-25 13:24 51°16.309 2°36.724 1.6 22 14.8 101250 75
2007-09-25 13:25 51°16.39 2°37.015 2.7 254 14.9 101240 74
2007-09-25 13:26 51°16.489 2°37.087 6.8 28 15.1 101240 72
2007-09-25 13:27 51°16.541 2°37.043 7.5 331 15.1 101230 70
2007-09-25 13:28 51°16.555 2°36.929 9.5 324 15.1 101230 68
2007-09-25 13:29 51°16.587 2°36.836 6.9 326 15.2 101220 69
2007-09-25 13:30 51°16.613 2°36.807 6.2 317 15.1 101230 68
2007-09-25 13:31 51°16.64 2°36.823 7.5 22 15.2 101240 69
2007-09-25 13:32 51°16.667 2°36.852 6.1 253 15.2 101240 68
2007-09-25 13:33 51°16.694 2°36.886 5 248 15.2 101240 67
2007-09-25 13:34 51°16.718 2°36.918 5.3 247 15.2 101240 67
2007-09-25 13:35 51°16.758 2°36.916 7.1 325 15.3 101230 67
2007-09-25 13:36 51°16.748 2°36.873 6.7 2 15.3 101230 68
2007-09-25 13:37 51°16.66 2°36.932 7.3 1 15.1 101230 68
2007-09-25 13:38 51°16.484 2°37.014 8.2 354 14.8 101230 67
2007-09-25 13:39 51°16.307 2°37.134 6.7 360 14.7 101220 68
2007-09-25 13:40 51°16.136 2°37.289 6 4 14.7 101230 69
2007-09-25 13:41 51°15.967 2°37.439 7.5 360 14.6 101230 68
2007-09-25 13:42 51°15.799 2°37.592 6.7 358 14.6 101230 65
2007-09-25 13:43 51°15.627 2°37.746 6.3 3 14.7 101230 67
2007-09-25 13:44 51°15.453 2°37.901 7.5 359 14.7 101230 69
2007-09-25 13:45 51°15.277 2°38.049 7.1 3 14.7 101230 70
2007-09-25 13:46 51°15.102 2°38.199 6.6 359 14.7 101230 71
2007-09-25 13:47 51°14.925 2°38.347 7.7 2 14.8 101220 72
2007-09-25 13:48 51°14.75 2°38.502 6.8 2 14.7 101220 71
2007-09-25 13:49 51°14.577 2°38.656 5.8 5 14.7 101230 70
2007-09-25 13:50 51°14.403 2°38.803 6.2 360 14.7 101220 70
2007-09-25 13:51 51°14.223 2°38.955 6.4 3 14.8 101230 71
2007-09-25 13:52 51°14.036 2°39.028 9 357 14.8 101220 70
2007-09-25 13:53 51°13.847 2°38.963 10.8 351 14.8 101210 71
2007-09-25 13:54 51°13.665 2°38.854 11.1 351 14.7 101210 70
2007-09-25 13:55 51°13.485 2°38.746 11.1 351 14.7 101210 69
2007-09-25 13:56 51°13.303 2°38.639 11.3 352 14.7 101210 69
2007-09-25 13:57 51°13.126 2°38.524 12.6 347 14.8 101200 70
2007-09-25 13:58 51°12.944 2°38.403 11.7 347 14.7 101210 69
2007-09-25 13:59 51°12.766 2°38.284 12.4 350 14.8 101200 70
2007-09-25 14:00 51°12.588 2°38.166 10.9 348 14.7 101200 67
2007-09-25 14:01 51°12.408 2°38.05 10.9 349 14.7 101210 67
2007-09-25 14:02 51°12.229 2°37.933 10.8 351 14.8 101200 65
2007-09-25 14:03 51°12.05 2°37.815 11 356 14.8 101210 64
2007-09-25 14:04 51°11.875 2°37.683 10.7 350 14.7 101210 64
2007-09-25 14:05 51°11.701 2°37.548 11.1 349 14.8 101210 66
2007-09-25 14:06 51°11.526 2°37.414 11.2 349 14.8 101210 68
2007-09-25 14:07 51°11.353 2°37.282 12 351 14.9 101210 69
2007-09-25 14:08 51°11.174 2°37.147 12.1 350 14.9 101200 68
2007-09-25 14:09 51°10.999 2°37.014 11.3 348 14.8 101210 68
2007-09-25 14:10 51°10.825 2°36.882 11.1 351 14.8 101200 66
2007-09-25 14:11 51°10.653 2°36.748 10.9 354 14.9 101210 66
2007-09-25 14:12 51°10.48 2°36.617 10.7 354 14.8 101210 64
2007-09-25 14:13 51°10.296 2°36.551 8.7 360 14.8 101210 63
2007-09-25 14:14 51°10.138 2°36.727 3.2 27 14.9 101230 65
2007-09-25 14:15 51°10.108 2°37.045 3.1 254 15 101240 66
2007-09-25 14:16 51°10.151 2°37.371 1.9 23 15.2 101240 66
2007-09-25 14:17 51°10.185 2°37.701 2.2 244 15.3 101240 65
2007-09-25 14:18 51°10.221 2°38.032 1.3 265 15.4 101240 64
2007-09-25 14:19 51°10.25 2°38.365 2.5 248 15.5 101240 64
2007-09-25 14:20 51°10.287 2°38.695 2.1 27 15.7 101240 64
2007-09-25 14:21 51°10.321 2°39.027 1.7 251 15.8 101240 63
2007-09-25 14:22 51°10.363 2°39.357 3.1 257 15.9 101240 62
2007-09-25 14:23 51°10.403 2°39.684 2 244 15.9 101240 61
2007-09-25 14:24 51°10.466 2°40 2.1 19 15.9 101240 61
2007-09-25 14:25 51°10.522 2°40.318 1.5 264 16 101240 61
2007-09-25 14:26 51°10.568 2°40.639 1.2 264 16.1 101240 61
2007-09-25 14:27 51°10.615 2°40.959 1.1 26 16.1 101240 62
2007-09-25 14:28 51°10.66 2°41.279 1.8 27 16.1 101240 63
2007-09-25 14:29 51°10.701 2°41.599 1.7 252 16.2 101240 63
2007-09-25 14:30 51°10.743 2°41.917 2.4 26 16.3 101240 63
2007-09-25 14:31 51°10.788 2°42.227 2.8 260 16.3 101240 63
2007-09-25 14:32 51°10.892 2°42.316 7.7 244 16.3 101240 62
2007-09-25 14:33 51°10.991 2°42.284 8.9 27 16.1 101240 62
2007-09-25 14:34 51°11.061 2°42.177 10 23 15.9 101220 62
2007-09-25 14:35 51°11.106 2°42.098 8.3 318 15.7 101230 63
2007-09-25 14:36 51°11.124 2°42.075 6.6 21 15.6 101230 64
2007-09-25 14:37 51°11.133 2°42.087 8.4 259 15.6 101240 65
2007-09-25 14:38 51°11.139 2°42.104 4.9 264 15.5 101250 65
2007-09-25 14:39 51°11.144 2°42.123 4.5 267 15.5 101240 66
2007-09-25 14:40 51°11.148 2°42.141 5.6 265 15.5 101240 67
2007-09-25 14:41 51°11.171 2°42.196 3.7 22 15.4 101240 67
2007-09-25 14:42 51°11.161 2°42.374 1.3 42 15.4 101240 67
2007-09-25 14:43 51°11.158 2°42.689 0.8 318 15.4 101240 66
2007-09-25 14:44 51°11.186 2°43.016 1.9 256 15.6 101240 67
2007-09-25 14:45 51°11.243 2°43.33 2.3 19 15.7 101240 66
2007-09-25 14:46 51°11.311 2°43.637 3.9 29 15.9 101240 66
2007-09-25 14:47 51°11.375 2°43.945 3.2 28 16 101240 64
2007-09-25 14:48 51°11.443 2°44.251 3.8 247 16 101240 64
2007-09-25 14:49 51°11.511 2°44.559 4.2 244 16.1 101230 63
2007-09-25 14:50 51°11.576 2°44.869 2.8 251 16.1 101240 63
2007-09-25 14:51 51°11.638 2°45.181 3.1 252 16.1 101240 62
2007-09-25 14:52 51°11.7 2°45.493 1.9 251 16.1 101230 62
2007-09-25 14:53 51°11.763 2°45.805 1.9 249 16.2 101230 64
2007-09-25 14:54 51°11.828 2°46.114 1.7 253 16.2 101230 63
2007-09-25 14:55 51°11.89 2°46.426 2.3 277 16.2 101230 62
2007-09-25 14:56 51°11.955 2°46.735 2.5 262 16.2 101230 63
2007-09-25 14:57 51°12.019 2°47.043 3.2 286 16.2 101240 62
2007-09-25 14:58 51°12.096 2°47.343 3 286 16.2 101240 63
2007-09-25 14:59 51°12.179 2°47.638 3.2 26 16.2 101240 63
2007-09-25 15:00 51°12.271 2°47.927 3.7 280 16.2 101230 63
2007-09-25 15:01 51°12.37 2°48.212 2.8 20 16.1 101230 62
2007-09-25 15:02 51°12.455 2°48.506 2.9 285 16.1 101240 63
2007-09-25 15:03 51°12.541 2°48.799 2.7 281 16.1 101230 64
2007-09-25 15:04 51°12.628 2°49.092 3.1 284 16.1 101230 64
2007-09-25 15:05 51°12.715 2°49.385 2.3 281 16.1 101240 64
2007-09-25 15:06 51°12.804 2°49.674 2.2 23 16.1 101230 63
2007-09-25 15:07 51°12.892 2°49.963 3.4 279 16.1 101240 64
2007-09-25 15:08 51°12.982 2°50.252 3.2 249 16.1 101230 64
2007-09-25 15:09 51°13.077 2°50.533 3.8 279 16.1 101240 65
2007-09-25 15:10 51°13.168 2°50.817 4.1 285 16.1 101230 64
2007-09-25 15:11 51°13.265 2°51.093 3.9 286 16 101230 64
2007-09-25 15:12 51°13.359 2°51.374 3.7 285 16 101230 65
2007-09-25 15:13 51°13.454 2°51.652 2.8 19 16.1 101230 65
2007-09-25 15:14 51°13.55 2°51.932 2.2 284 16.1 101230 65
2007-09-25 15:15 51°13.649 2°52.209 2.8 284 16.1 101240 65
2007-09-25 15:16 51°13.742 2°52.49 2.8 279 16 101240 64
2007-09-25 15:17 51°13.838 2°52.766 1.6 282 16 101240 64
2007-09-25 15:18 51°13.93 2°53.048 2.7 283 16 101240 64
2007-09-25 15:19 51°14.028 2°53.329 2.8 282 16 101240 64
2007-09-25 15:20 51°14.126 2°53.609 3.6 277 16 101240 65
2007-09-25 15:21 51°14.215 2°53.893 3.3 280 16 101230 63
2007-09-25 15:22 51°14.308 2°54.161 3.2 284 15.9 101240 63
2007-09-25 15:23 51°14.381 2°54.439 2.3 284 16 101240 64
2007-09-25 15:24 51°14.383 2°54.747 1.8 282 15.9 101240 63
2007-09-25 15:25 51°14.348 2°55.049 2.5 -999 15.8 101240 63
2007-09-25 15:26 51°14.264 2°55.251 2.2 1 15.6 101240 65
2007-09-25 15:27 51°14.186 2°55.357 4.3 3 15.5 101240 68
2007-09-25 15:28 51°14.075 2°55.451 5.8 352 15.4 101240 66
2007-09-25 15:29 51°13.951 2°55.539 3.1 356 15.3 101240 65
2007-09-25 15:30 51°13.825 2°55.637 3.7 279 15.3 101240 65
2007-09-25 15:31 51°13.739 2°55.744 3.6 352 15.3 101240 65
2007-09-25 15:32 51°13.675 2°55.867 1.4 276 15.4 101240 65
2007-09-25 15:33 51°13.632 2°55.973 2.1 11 15.5 101240 66
2007-09-25 15:34 51°13.614 2°56.055 1.3 28 15.6 101240 66
2007-09-25 15:35 51°13.604 2°56.093 2.2 44 15.6 101240 65
2007-09-25 15:36 51°13.601 2°56.1 2.2 23 15.8 101240 65
2007-09-25 15:37 51°13.602 2°56.1 3 81 15.9 101240 65